This demonstration page uses our WeatherBlox Daily Observations layout. Learn more.

Left ArrowRight Arrow

38.83388, -104.82136

Hourly Observations for March 19, 2018

Temp ( °F °C ) Dew Point ( °F °C ) Humidity (%) Winds ( mph kmh ) Pressure ( in mb ) Visibility ( mi km ) Precip ( " mm )
12:05 am 00:05 Mostly Cloudy 34 1 23 -5 65 65 NW 20 31 29.37 995 10 16 0.00 0.00
12:34 am 00:34 Partly Cloudy with Light Rain 36 2 21 -6 56 56 NW 30 48 29.38 995 10 16 0.00 0.00
12:58 am 00:58 Windy with Rain Showers Likely 35 1.5 20 -6.6 55 55 NW 35 56 29.37 995 10 16 0.00 0.00
1:34 am 01:34 Mostly Cloudy 32 0 21 -6 64 64 N 16 26 29.44 997 10 16 0.00 0.00
1:58 am 01:58 Mostly Cloudy 33 0.8 17 -8.1 52 52 NNW 9 15 29.45 997 10 16 0.00 0.00
2:58 am 02:58 Clear 29 -1.5 22 -5.6 74 74 NNW 9 15 29.50 999 10 16 0.00 0.00
3:58 am 03:58 Clear 28 -2.3 21 -6.1 75 75 N 10 17 29.53 1000 10 16 0.00 0.00
4:58 am 04:58 Clear 28 -2.5 19 -7.1 71 71 N 12 19 29.56 1001 10 16 0.00 0.00
5:58 am 05:58 Clear 26 -3.3 21 -6.2 81 81 N 17 28 29.57 1002 10 16 0.00 0.00
6:58 am 06:58 Clear 31 -0.5 11 -11.4 44 44 N 16 26 29.62 1003 10 16 0.00 0.00
7:58 am 07:58 Sunny 30 -1.1 15 -9.3 54 54 N 13 20 29.66 1004 10 16 0.00 0.00
8:58 am 08:58 Sunny 32 -0.1 15 -9.2 51 51 NNW 17 28 29.70 1006 10 16 0.00 0.00
9:58 am 09:58 Mostly Sunny 34 1 14 -9.9 44 44 NNE 16 26 29.69 1005 10 16 0.00 0.00
10:58 am 10:58 Mostly Cloudy 34 1.2 12 -11.1 40 40 N 20 31 29.73 1007 10 16 0.00 0.00
11:58 am 11:58 Mostly Cloudy 35 1.5 11 -11.5 38 38 NNE 10 17 29.71 1006 10 16 0.00 0.00
12:58 pm 12:58 Mostly Cloudy 38 3.2 11 -11.4 34 34 NNE 12 19 29.68 1005 10 16 0.00 0.00
1:29 pm 13:29 Mostly Cloudy with Light Rain 36 2 16 -9 44 44 N 14 22 29.70 1006 10 16 0.00 0.00
1:41 pm 13:41 Mostly Cloudy with Light Rain/Snow 36 2 14 -10 41 41 N 9 15 29.70 1006 10 16 0.00 0.00
1:51 pm 13:51 Cloudy 36 2 12 -11 38 38 NNE 14 22 29.70 1006 10 16 0.00 0.00
1:58 pm 13:58 Cloudy 36 2 12 -11 38 38 N 13 20 29.70 1006 10 16 0.00 0.00
2:50 pm 14:50 Mostly Cloudy with Light Rain 34 1 14 -10 44 44 N 10 17 29.72 1006 10 16 0.00 0.00
2:55 pm 14:55 Mostly Cloudy with Light Rain 34 1 16 -9 48 48 NNW 8 13 29.72 1006 9 14 0.00 0.00
2:58 pm 14:58 Mostly Cloudy with Light Rain/Snow 33 0.7 16 -9.1 48 48 N 10 17 29.72 1006 7 11 0.00 0.00
3:58 pm 15:58 Mostly Cloudy with Light Snow Showers 32 0.1 22 -5.7 65 65 NW 10 17 29.75 1007 2 4 0.00 0.00
4:28 pm 16:28 Cloudy with Light Snow Showers 30 -1 25 -4 80 80 WNW 10 17 29.76 1008 2 2 0.00 0.00
4:33 pm 16:33 Cloudy with Light Snow Showers 32 0 21 -6 64 64 NNW 7 11 29.75 1007 4 6 0.00 0.00
4:58 pm 16:58 Cloudy with Light Snow 32 0.1 23 -5.2 68 68 NW 13 20 29.75 1007 4 6 0.00 0.00
5:58 pm 17:58 Cloudy with Snow 30 -1.3 26 -3.2 87 87 NW 8 13 29.78 1009 1 1 0.00 0.00
6:13 pm 18:13 Cloudy with Light Snow 30 -1 25 -4 80 80 WNW 12 19 29.78 1008 3 4 0.00 0.00
6:28 pm 18:28 Cloudy with Light Snow 30 -1 25 -4 80 80 NW 13 20 29.76 1008 2 4 0.00 0.00
6:33 pm 18:33 Cloudy with Light Snow 30 -1 25 -4 80 80 NW 10 17 29.77 1008 7 11 0.00 0.00
6:58 pm 18:58 Cloudy with Light Snow 30 -1.2 24 -4.2 80 80 NW 9 15 29.79 1009 2 3 0.00 0.00
7:03 pm 19:03 Cloudy with Light Snow 30 -1 25 -4 80 80 WNW 12 19 29.79 1009 4 6 0.00 0.00
7:23 pm 19:23 Cloudy with Light Snow 32 0 23 -5 69 69 WNW 9 15 29.79 1009 8 13 0.00 0.00
7:58 pm 19:58 Cloudy with Light Snow 31 -0.5 23 -5.1 71 71 WNW 7 11 29.80 1009 10 16 0.00 0.00
8:13 pm 20:13 Mostly Cloudy 32 0 21 -6 64 64 WNW 8 13 29.80 1009 10 16 0.00 0.00
8:27 pm 20:27 Mostly Cloudy with Light Showers 32 0 21 -6 64 64 WNW 6 9 29.79 1009 10 16 0.00 0.00
8:42 pm 20:42 Cloudy with Light Snow Showers 30 -1 25 -4 80 80 WNW 3 6 29.82 1010 7 11 0.00 0.00
8:47 pm 20:47 Cloudy with Light Snow Showers 28 -2 25 -4 86 86 WNW 6 9 29.82 1010 5 8 0.00 0.00
8:58 pm 20:58 Cloudy with Light Snow Showers 29 -1.6 24 -4.2 83 83 W 3 6 29.82 1010 5 8 0.01 0.25
9:20 pm 21:20 Cloudy 30 -1 23 -5 75 75 Calm 29.79 1009 10 16 0.00 0.00
9:35 pm 21:35 Partly Cloudy 30 -1 23 -5 75 75 WNW 5 7 29.79 1009 10 16 0.00 0.00
9:58 pm 21:58 Clear 30 -1.3 22 -5.8 72 72 W 3 6 29.79 1009 10 16 0.00 0.00
10:58 pm 22:58 Clear 29 -1.7 21 -6.2 72 72 WNW 7 11 29.78 1009 10 16 0.00 0.00
11:58 pm 23:58 Clear 29 -1.8 21 -6.3 72 72 Calm 29.77 1008 10 16 0.00 0.00

Powered by AerisWeather